Time,TemperatureF,DewpointF,PressureIn,WindDirection,WindDirectionDegrees,WindSpeedMPH,WindSpeedGustMPH,Humidity,HourlyPrecipIn,Conditions,Clouds,dailyrainin,SoftwareType,DateUTC
2013-02-26 00:01:00,38.0,32.0,29.96,WNW,291,8.0,9.0,78,0.00,,,0.04,,2013-02-26 06:01:00,
2013-02-26 00:11:00,38.0,32.0,29.96,WNW,291,8.0,9.0,78,0.00,,,0.04,,2013-02-26 06:11:00,
2013-02-26 00:21:00,36.0,31.0,29.96,WNW,284,6.0,6.0,81,0.00,,,0.04,,2013-02-26 06:21:00,
2013-02-26 00:31:00,34.0,30.0,29.95,NW,315,5.0,5.0,85,0.00,,,0.04,,2013-02-26 06:31:00,
2013-02-26 00:41:00,34.0,30.0,29.95,NW,315,5.0,5.0,85,0.00,,,0.04,,2013-02-26 06:41:00,
2013-02-26 00:52:00,34.0,30.0,29.96,West,273,5.0,5.0,86,0.00,,,0.04,,2013-02-26 06:52:00,
2013-02-26 01:01:00,33.0,30.0,29.96,West,259,4.0,4.0,87,0.00,,,0.04,,2013-02-26 07:01:00,
2013-02-26 01:11:00,33.0,30.0,29.96,West,259,4.0,4.0,87,0.00,,,0.04,,2013-02-26 07:11:00,
2013-02-26 01:22:00,31.0,28.0,29.96,WNW,297,3.0,3.0,90,0.00,,,0.04,,2013-02-26 07:22:00,
2013-02-26 01:31:00,30.0,28.0,29.95,West,262,3.0,3.0,92,0.00,,,0.04,,2013-02-26 07:31:00,
2013-02-26 01:52:00,29.0,27.0,29.96,West,276,5.0,6.0,93,0.00,,,0.04,,2013-02-26 07:52:00,
2013-02-26 02:01:00,29.0,28.0,29.95,West,269,4.0,4.0,95,0.00,,,0.04,,2013-02-26 08:01:00,
2013-02-26 02:11:00,29.0,28.0,29.95,West,266,4.0,5.0,95,0.00,,,0.04,,2013-02-26 08:11:00,
2013-02-26 02:21:00,29.0,28.0,29.95,West,266,4.0,5.0,95,0.00,,,0.04,,2013-02-26 08:21:00,
2013-02-26 02:31:00,29.0,28.0,29.94,West,277,4.0,5.0,95,0.00,,,0.04,,2013-02-26 08:31:00,
2013-02-26 02:41:00,29.0,28.0,29.94,West,277,4.0,5.0,95,0.00,,,0.04,,2013-02-26 08:41:00,
2013-02-26 02:52:00,29.0,28.0,29.94,WSW,256,3.0,3.0,95,0.00,,,0.04,,2013-02-26 08:52:00,
2013-02-26 03:01:00,28.0,27.0,29.94,WSW,256,4.0,4.0,95,0.00,,,0.04,,2013-02-26 09:01:00,
2013-02-26 03:11:00,28.0,27.0,29.94,WSW,256,4.0,4.0,95,0.00,,,0.04,,2013-02-26 09:11:00,
2013-02-26 03:21:00,27.0,26.0,29.95,WSW,249,5.0,5.0,96,0.00,,,0.04,,2013-02-26 09:21:00,
2013-02-26 03:31:00,27.0,26.0,29.96,WSW,252,8.0,8.0,97,0.00,,,0.04,,2013-02-26 09:31:00,
2013-02-26 03:43:00,27.0,26.0,29.96,WSW,252,8.0,8.0,97,0.00,,,0.04,,2013-02-26 09:43:00,
2013-02-26 03:52:00,28.0,27.0,29.96,WSW,246,8.0,8.0,96,0.00,,,0.04,,2013-02-26 09:52:00,
2013-02-26 04:01:00,28.0,27.0,29.96,WSW,256,5.0,5.0,96,0.00,,,0.04,,2013-02-26 10:01:00,
2013-02-26 04:11:00,28.0,27.0,29.96,WSW,256,5.0,5.0,96,0.00,,,0.04,,2013-02-26 10:11:00,
2013-02-26 04:21:00,27.0,26.0,29.97,WSW,238,5.0,5.0,96,0.00,,,0.04,,2013-02-26 10:21:00,
2013-02-26 04:31:00,26.0,25.0,29.96,WSW,248,5.0,5.0,97,0.00,,,0.04,,2013-02-26 10:31:00,
2013-02-26 04:41:00,26.0,25.0,29.96,WSW,248,5.0,5.0,97,0.00,,,0.04,,2013-02-26 10:41:00,
2013-02-26 04:52:00,26.0,25.0,29.96,WSW,252,5.0,5.0,97,0.00,,,0.04,,2013-02-26 10:52:00,
2013-02-26 05:01:00,26.0,26.0,29.97,WSW,253,6.0,6.0,98,0.00,,,0.04,,2013-02-26 11:01:00,
2013-02-26 05:11:00,26.0,26.0,29.97,WSW,253,6.0,6.0,98,0.00,,,0.04,,2013-02-26 11:11:00,
2013-02-26 05:21:00,26.0,25.0,29.96,West,276,4.0,5.0,97,0.00,,,0.04,,2013-02-26 11:21:00,
2013-02-26 05:32:00,25.0,24.0,29.96,WSW,249,6.0,8.0,97,0.00,,,0.04,,2013-02-26 11:32:00,
2013-02-26 05:42:00,25.0,25.0,29.96,West,274,5.0,5.0,98,0.00,,,0.04,,2013-02-26 11:42:00,
2013-02-26 05:52:00,25.0,25.0,29.96,West,274,5.0,5.0,98,0.00,,,0.04,,2013-02-26 11:52:00,
2013-02-26 06:01:00,25.0,25.0,29.97,West,262,7.0,7.0,98,0.00,,,0.04,,2013-02-26 12:01:00,
2013-02-26 06:11:00,25.0,25.0,29.97,West,262,7.0,7.0,98,0.00,,,0.04,,2013-02-26 12:11:00,
2013-02-26 06:22:00,25.0,25.0,29.96,WSW,248,5.0,5.0,98,0.00,,,0.04,,2013-02-26 12:22:00,
2013-02-26 06:32:00,24.0,24.0,29.97,WSW,239,5.0,6.0,98,0.00,,,0.04,,2013-02-26 12:32:00,
2013-02-26 06:42:00,24.0,24.0,29.97,WSW,239,5.0,6.0,98,0.00,,,0.04,,2013-02-26 12:42:00,
2013-02-26 06:53:00,25.0,25.0,29.97,WSW,248,6.0,6.0,98,0.00,,,0.04,,2013-02-26 12:53:00,
2013-02-26 07:01:00,25.0,25.0,29.97,WSW,252,6.0,6.0,98,0.00,,,0.04,,2013-02-26 13:01:00,
2013-02-26 07:11:00,25.0,25.0,29.97,WSW,252,6.0,6.0,98,0.00,,,0.04,,2013-02-26 13:11:00,
2013-02-26 07:21:00,26.0,26.0,29.97,West,277,6.0,7.0,98,0.00,,,0.04,,2013-02-26 13:21:00,
2013-02-26 07:32:00,26.0,26.0,29.97,West,259,6.0,6.0,98,0.00,,,0.04,,2013-02-26 13:32:00,
2013-02-26 07:42:00,26.0,26.0,29.97,West,259,6.0,6.0,98,0.00,,,0.04,,2013-02-26 13:42:00,
2013-02-26 07:52:00,28.0,28.0,29.97,WSW,255,6.0,6.0,98,0.00,,,0.04,,2013-02-26 13:52:00,
2013-02-26 08:01:00,31.0,31.0,29.98,SW,229,5.0,5.0,98,0.00,,,0.04,,2013-02-26 14:01:00,
2013-02-26 08:11:00,31.0,31.0,29.98,SW,229,5.0,5.0,98,0.00,,,0.04,,2013-02-26 14:11:00,
2013-02-26 08:21:00,34.0,33.0,29.99,WSW,246,6.0,6.0,96,0.00,,,0.04,,2013-02-26 14:21:00,
2013-02-26 08:31:00,35.0,33.0,30.01,SW,217,6.0,6.0,94,0.00,,,0.04,,2013-02-26 14:31:00,
2013-02-26 08:52:00,36.0,34.0,30.01,SSW,208,7.0,9.0,91,0.00,,,0.04,,2013-02-26 14:52:00,
2013-02-26 09:02:00,38.0,35.0,30.01,WSW,238,9.0,9.0,88,0.00,,,0.04,,2013-02-26 15:02:00,
2013-02-26 09:21:00,39.0,37.0,30.02,West,266,7.0,7.0,91,0.00,,,0.04,,2013-02-26 15:21:00,
2013-02-26 09:32:00,39.0,38.0,30.02,WSW,252,10.0,10.0,95,0.00,,,0.04,,2013-02-26 15:32:00,
2013-02-26 09:52:00,40.0,39.0,30.01,WSW,256,9.0,9.0,97,0.00,,,0.04,,2013-02-26 15:52:00,
2013-02-26 10:01:00,41.0,40.0,30.01,WSW,255,7.0,8.0,97,0.00,,,0.04,,2013-02-26 16:01:00,
2013-02-26 10:22:00,42.0,41.0,29.99,WSW,249,7.0,7.0,98,0.00,,,0.04,,2013-02-26 16:22:00,
2013-02-26 10:32:00,43.0,42.0,29.99,West,273,3.0,5.0,96,0.00,,,0.04,,2013-02-26 16:32:00,
2013-02-26 10:52:00,46.0,45.0,29.98,West,259,4.0,6.0,95,0.00,,,0.04,,2013-02-26 16:52:00,
2013-02-26 11:01:00,49.0,45.0,29.98,SW,224,3.0,3.0,87,0.00,,,0.04,,2013-02-26 17:01:00,
2013-02-26 11:11:00,55.0,47.0,29.98,WSW,256,2.0,7.0,75,0.00,,,0.04,,2013-02-26 17:11:00,
2013-02-26 11:21:00,55.0,47.0,29.98,WSW,256,2.0,7.0,75,0.00,,,0.04,,2013-02-26 17:21:00,
2013-02-26 11:32:00,55.0,43.0,29.97,SSW,195,1.0,0.0,63,0.00,,,0.04,,2013-02-26 17:32:00,
2013-02-26 11:52:00,54.0,39.0,29.97,SW,231,3.0,3.0,57,0.00,,,0.04,,2013-02-26 17:52:00,
2013-02-26 12:01:00,59.0,40.0,29.96,WSW,253,1.0,4.0,50,0.00,,,0.04,,2013-02-26 18:01:00,
2013-02-26 12:21:00,60.0,40.0,29.95,West,264,3.0,4.0,47,0.00,,,0.04,,2013-02-26 18:21:00,
2013-02-26 12:32:00,59.0,38.0,29.94,SW,231,6.0,6.0,45,0.00,,,0.04,,2013-02-26 18:32:00,
2013-02-26 12:52:00,58.0,37.0,29.93,SSW,195,4.0,4.0,46,0.00,,,0.04,,2013-02-26 18:52:00,
2013-02-26 13:01:00,60.0,37.0,29.91,WNW,298,4.0,5.0,43,0.00,,,0.04,,2013-02-26 19:01:00,
2013-02-26 13:22:00,61.0,37.0,29.90,NW,325,4.0,4.0,41,0.00,,,0.04,,2013-02-26 19:22:00,
2013-02-26 13:32:00,64.0,39.0,29.89,SW,221,4.0,8.0,40,0.00,,,0.04,,2013-02-26 19:32:00,
2013-02-26 13:52:00,66.0,39.0,29.88,SW,235,7.0,7.0,37,0.00,,,0.04,,2013-02-26 19:52:00,
2013-02-26 14:01:00,66.0,40.0,29.87,SW,218,1.0,2.0,38,0.00,,,0.04,,2013-02-26 20:01:00,
2013-02-26 14:21:00,64.0,38.0,29.86,NW,316,4.0,0.0,38,0.00,,,0.04,,2013-02-26 20:21:00,
2013-02-26 14:31:00,63.0,38.0,29.85,SW,214,3.0,3.0,40,0.00,,,0.04,,2013-02-26 20:31:00,
2013-02-26 14:52:00,66.0,40.0,29.85,WSW,243,4.0,4.0,38,0.00,,,0.04,,2013-02-26 20:52:00,
2013-02-26 15:01:00,66.0,39.0,29.84,SW,225,3.0,7.0,37,0.00,,,0.04,,2013-02-26 21:01:00,
2013-02-26 15:21:00,65.0,37.0,29.83,SW,221,5.0,8.0,36,0.00,,,0.04,,2013-02-26 21:21:00,
2013-02-26 15:31:00,66.0,38.0,29.82,SW,222,6.0,6.0,36,0.00,,,0.04,,2013-02-26 21:31:00,
2013-02-26 15:51:00,67.0,38.0,29.81,West,264,4.0,0.0,35,0.00,,,0.04,,2013-02-26 21:51:00,
2013-02-26 16:01:00,67.0,38.0,29.81,SW,221,3.0,3.0,34,0.00,,,0.04,,2013-02-26 22:01:00,
2013-02-26 16:11:00,66.0,37.0,29.80,WNW,290,0.0,0.0,34,0.00,,,0.04,,2013-02-26 22:11:00,
2013-02-26 16:21:00,66.0,37.0,29.80,WNW,290,0.0,0.0,34,0.00,,,0.04,,2013-02-26 22:21:00,
2013-02-26 16:31:00,65.0,37.0,29.80,SSE,148,0.0,2.0,35,0.00,,,0.04,,2013-02-26 22:31:00,
2013-02-26 16:51:00,65.0,37.0,29.79,SE,142,2.0,2.0,35,0.00,,,0.04,,2013-02-26 22:51:00,
2013-02-26 17:01:00,65.0,36.0,29.78,WSW,245,0.0,0.0,34,0.00,,,0.04,,2013-02-26 23:01:00,
2013-02-26 17:21:00,64.0,36.0,29.78,WNW,301,0.0,0.0,35,0.00,,,0.04,,2013-02-26 23:21:00,
2013-02-26 17:31:00,64.0,37.0,29.77,NNW,347,1.0,0.0,36,0.00,,,0.04,,2013-02-26 23:31:00,
2013-02-26 17:52:00,64.0,37.0,29.77,SE,146,3.0,6.0,36,0.00,,,0.04,,2013-02-26 23:52:00,
2013-02-26 18:01:00,63.0,36.0,29.76,SE,135,6.0,8.0,37,0.00,,,0.04,,2013-02-27 00:01:00,
2013-02-26 18:21:00,62.0,35.0,29.76,SE,141,7.0,9.0,37,0.00,,,0.04,,2013-02-27 00:21:00,
2013-02-26 18:31:00,60.0,35.0,29.76,SSE,159,6.0,7.0,39,0.00,,,0.04,,2013-02-27 00:31:00,
2013-02-26 18:52:00,57.0,35.0,29.76,SSE,158,4.0,4.0,44,0.00,,,0.00,,2013-02-27 00:52:00,
2013-02-26 19:01:00,54.0,34.0,29.77,SE,136,4.0,4.0,47,0.00,,,0.00,,2013-02-27 01:01:00,
2013-02-26 19:21:00,52.0,33.0,29.77,SE,132,3.0,3.0,48,0.00,,,0.00,,2013-02-27 01:21:00,
2013-02-26 19:32:00,50.0,32.0,29.77,SE,131,5.0,5.0,50,0.00,,,0.00,,2013-02-27 01:32:00,
2013-02-26 19:52:00,49.0,32.0,29.77,SE,132,6.0,6.0,51,0.00,,,0.00,,2013-02-27 01:52:00,
2013-02-26 20:01:00,48.0,31.0,29.78,SE,139,7.0,7.0,52,0.00,,,0.00,,2013-02-27 02:01:00,
2013-02-26 20:23:00,47.0,31.0,29.78,SSE,160,6.0,6.0,54,0.00,,,0.00,,2013-02-27 02:23:00,
2013-02-26 20:32:00,45.0,31.0,29.79,SSE,159,6.0,6.0,58,0.00,,,0.00,,2013-02-27 02:32:00,
2013-02-26 20:52:00,43.0,31.0,29.79,South,174,7.0,8.0,62,0.00,,,0.00,,2013-02-27 02:52:00,
2013-02-26 21:01:00,43.0,30.0,29.80,SSW,197,8.0,8.0,61,0.00,,,0.00,,2013-02-27 03:01:00,
2013-02-26 21:11:00,45.0,31.0,29.81,SSE,156,6.0,6.0,58,0.00,,,0.00,,2013-02-27 03:11:00,
2013-02-26 21:21:00,45.0,31.0,29.81,SSE,156,6.0,6.0,58,0.00,,,0.00,,2013-02-27 03:21:00,
2013-02-26 21:32:00,44.0,30.0,29.81,SSE,156,5.0,5.0,58,0.00,,,0.00,,2013-02-27 03:32:00,
2013-02-26 21:52:00,44.0,31.0,29.82,SSE,163,7.0,7.0,59,0.00,,,0.00,,2013-02-27 03:52:00,
2013-02-26 22:01:00,43.0,30.0,29.82,South,172,6.0,6.0,59,0.00,,,0.00,,2013-02-27 04:01:00,
2013-02-26 22:21:00,42.0,30.0,29.83,SE,142,4.0,4.0,61,0.00,,,0.00,,2013-02-27 04:21:00,
2013-02-26 22:32:00,40.0,28.0,29.83,South,180,6.0,6.0,63,0.00,,,0.00,,2013-02-27 04:32:00,
2013-02-26 22:52:00,39.0,28.0,29.83,South,186,5.0,5.0,64,0.00,,,0.00,,2013-02-27 04:52:00,
2013-02-26 23:01:00,38.0,28.0,29.83,SSW,193,5.0,5.0,67,0.00,,,0.00,,2013-02-27 05:01:00,
2013-02-26 23:22:00,39.0,29.0,29.83,South,170,6.0,7.0,66,0.00,,,0.00,,2013-02-27 05:22:00,
2013-02-26 23:32:00,40.0,29.0,29.83,South,186,4.0,4.0,65,0.00,,,0.00,,2013-02-27 05:32:00,
2013-02-26 23:52:00,40.0,29.0,29.83,SW,231,3.0,3.0,64,0.00,,,0.00,,2013-02-27 05:52:00,